Wetbulb
63.41 64.60 65.81 66.95 66.74 66.68 65.56 64.67 65.71 66.27 67.76 66.88 65.04 63.49 64.61 65.95 67.85 68.37 69.60 67.95 68.62 69.67 69.77 70.16 70.73 69.08 68.80 69.46 68.97 71.01 70.22 69.98 67.61 65.89 65.84 64.54 65.68 67.28 67.60 69.34 71.12 71.75 72.31
62.43 63.86 64.42 65.75 66.73 66.58 66.62 66.21 65.96 65.84 67.59 67.51 66.34 65.74 66.44 67.29 68.05 69.02 69.17 69.60 69.50 70.03 70.82 70.24 70.80 70.24 69.00 68.93 69.06 69.96 69.12 69.55 69.02 64.97 62.70 62.10 63.67 66.80 68.95 70.10 70.33 70.30 71.35
61.76 63.44 64.18 64.53 66.32 66.20 66.82 67.12 66.04 65.98 67.62 67.90 67.93 67.73 68.10 67.60 67.91 68.19 68.32 69.80 70.53 70.65 70.78 70.58 70.45 70.22 70.49 69.75 69.73 70.32 69.46 67.59 69.29 69.32 64.02 60.58 60.43 63.18 66.55 67.54 68.62 68.53 68.03
62.96 63.79 64.15 64.34 65.41 66.35 67.94 67.97 66.86 66.31 67.55 68.27 67.25 67.28 66.05 65.39 66.73 66.68 67.19 67.96 70.04 71.05 71.12 71.53 70.93 69.85 69.02 69.29 70.54 71.31 70.27 69.26 67.81 68.58 69.88 66.08 64.99 61.91 61.98 66.68 67.25 68.26 68.57
63.12 63.43 64.25 65.03 66.79 67.86 67.74 68.04 66.42 66.78 67.68 67.94 67.27 67.11 66.14 65.63 66.70 67.64 67.28 66.98 67.65 71.23 71.59 71.28 71.63 69.93 69.42 69.13 70.32 71.03 70.78 70.09 68.89 68.18 68.70 67.45 67.24 66.90 64.48 63.30 64.83 67.33 68.38
62.93 63.60 64.77 65.90 66.72 68.04 68.22 68.26 66.59 66.04 67.39 68.02 68.38 66.82 66.67 66.55 65.99 66.82 67.33 67.90 67.67 70.48 70.78 71.80 70.76 69.46 69.50 69.49 70.97 71.22 70.97 70.21 69.67 69.96 68.92 67.69 66.95 66.05 63.73 63.43 64.09 64.11 68.12
63.05 62.40 63.49 65.81 66.25 66.52 67.42 68.92 67.36 66.41 66.79 67.70 68.76 68.19 67.70 67.39 66.50 66.92 66.64 67.24 67.80 69.57 70.08 70.94 70.33 69.64 71.03 71.31 71.15 70.81 70.38 70.27 69.32 69.83 69.73 69.76 69.01 69.00 66.72 65.26 65.10 64.63 66.68
62.80 62.65 63.98 65.45 66.12 66.96 66.87 67.41 68.61 66.99 67.52 67.29 67.61 69.12 68.40 67.69 67.20 66.78 66.48 66.77 68.30 69.48 70.64 71.24 70.96 70.28 71.13 71.62 71.35 70.92 70.56 70.84 69.80 70.15 69.99 69.98 70.40 69.85 67.82 65.87 65.35 63.21 64.54
62.40 62.26 64.51 65.82 66.47 66.74 66.92 67.29 67.40 68.36 68.58 68.67 68.33 68.19 68.83 68.61 67.69 67.45 65.90 66.13 68.35 70.10 69.39 71.18 71.63 71.02 71.16 71.78 70.88 70.66 70.67 70.36 70.67 70.46 70.09 70.03 70.25 70.17 70.21 68.01 68.07 64.81 62.03
62.67 63.11 64.04 65.18 66.25 66.74 67.57 68.22 67.70 67.86 69.28 69.41 69.25 69.58 69.24 69.38 69.05 68.37 68.20 67.74 68.87 68.96 69.77 70.32 71.61 71.75 71.06 71.73 70.43 70.33 70.67 70.44 70.51 70.21 69.52 70.06 70.52 70.35 69.77 70.07 69.06 67.37 65.17
61.57 63.09 64.55 65.53 65.74 66.21 66.54 67.59 67.41 67.06 67.61 70.03 69.56 69.97 69.89 69.98 69.40 69.32 69.19 69.52 69.76 69.16 69.38 70.63 70.01 70.42 70.29 70.20 70.76 70.96 70.98 70.29 70.07 70.22 69.91 69.98 70.15 70.27 70.61 70.09 69.80 68.05 67.78
62.36 63.56 64.01 64.76 64.99 66.23 67.02 67.39 68.54 67.82 67.56 67.91 67.35 68.41 69.13 69.81 70.03 69.98 69.69 69.62 69.52 69.71 69.67 69.25 68.96 68.60 68.64 68.38 69.53 70.72 71.75 70.35 69.55 70.01 69.50 70.21 72.40 69.39 69.99 69.76 68.93 68.81 69.15
62.64 63.03 62.88 62.69 63.50 64.90 66.05 67.13 65.68 66.55 67.31 66.75 65.95 65.70 66.19 68.05 69.56 70.25 70.48 69.58 69.53 69.46 68.63 67.96 66.89 66.17 67.01 66.99 69.45 69.89 69.69 70.19 69.86 69.67 69.58 69.95 70.07 69.64 69.21 69.28 68.86 68.90 69.98
62.49 62.29 61.56 61.70 62.40 63.88 64.27 65.13 66.48 65.90 65.99 65.45 65.68 65.50 65.14 66.08 68.16 69.78 70.05 69.82 69.60 69.32 68.27 67.46 67.17 65.54 64.35 65.99 68.87 70.84 69.74 70.12 70.39 71.17 71.14 70.90 70.58 69.28 69.16 69.46 69.17 68.75 67.92
62.17 62.31 61.91 62.85 63.26 63.57 63.99 64.51 65.06 64.97 65.62 65.98 66.00 65.76 65.49 65.78 66.77 67.53 69.90 70.56 70.37 70.25 69.67 68.87 68.13 67.91 67.08 66.98 67.81 70.54 70.37 69.85 70.03 71.29 71.53 71.70 71.81 69.82 69.10 70.19 69.33 69.13 67.49
63.10 63.43 64.50 65.30 64.75 64.20 63.90 64.19 64.69 64.63 65.28 65.10 65.49 67.13 66.64 65.38 64.87 65.13 66.93 69.11 70.21 70.79 70.19 68.39 68.47 68.30 69.58 67.83 67.45 70.27 71.18 71.05 69.98 69.84 70.18 71.36 70.89 69.16 67.62 67.51 68.28 69.20 67.87
63.05 63.21 63.86 64.85 64.97 64.93 65.46 64.50 64.94 65.50 64.98 64.96 65.54 66.34 66.18 64.64 64.15 65.45 66.36 66.74 67.49 68.97 70.42 70.88 70.33 69.76 70.42 66.63 66.52 68.31 70.52 70.58 70.94 70.59 70.30 70.85 71.45 68.41 67.47 65.99 66.02 65.04 65.69
62.89 63.14 63.89 63.84 64.38 64.80 66.00 66.27 66.31 66.13 65.18 64.58 65.12 65.94 65.75 65.33 65.42 65.94 65.93 65.12 65.17 65.94 67.89 69.36 69.74 70.20 70.70 65.84 65.50 67.30 70.03 70.43 70.76 70.99 71.14 70.23 69.58 67.10 65.84 64.42 63.54 63.11 62.62
64.17 65.17 65.67 65.01 64.42 64.83 65.59 65.49 65.53 65.58 65.41 65.64 66.16 66.88 66.65 65.87 66.66 67.31 67.69 66.18 65.28 65.22 66.95 68.77 68.97 70.09 70.93 63.94 63.70 65.07 68.81 69.66 69.95 71.02 70.90 70.74 70.27 65.48 63.00 64.13 61.55 59.61 59.04
65.18 66.01 65.92 65.05 65.09 65.02 65.67 64.58 63.55 64.39 64.82 65.78 66.43 67.11 67.17 66.65 66.49 67.01 67.32 68.55 67.71 67.73 68.77 68.46 69.09 67.24 69.88 63.22 61.04 62.65 68.84 68.70 69.40 69.35 69.56 65.59 69.03 61.77 60.80 64.58 61.34 59.37 58.70
65.52 65.85 65.28 64.76 64.31 64.29 63.81 62.08 60.95 61.89 64.24 66.63 65.34 64.40 64.09 64.60 64.91 64.08 63.60 64.19 65.86 68.12 67.44 67.94 67.82 67.93 65.47 65.63 61.04 60.14 66.12 68.95 68.41 68.30 68.59 69.19 61.95 58.69 58.70 61.17 63.44 62.60 60.10
64.15 65.33 63.43 62.77 62.74 62.76 61.88 59.95 62.08 63.36 64.87 64.64 63.39 62.34 62.79 63.67 64.03 62.71 63.31 63.65 63.66 64.48 65.31 67.07 66.92 65.67 65.08 59.59 59.23 58.14 58.12 62.95 68.27 68.57 68.77 67.49 58.51 57.06 57.78 60.28 60.38 57.86 59.16
64.30 64.52 63.40 61.62 61.06 61.37 61.89 61.21 61.40 62.07 63.75 65.34 63.85 63.12 61.88 59.42 59.72 59.26 59.69 62.02 62.43 62.71 63.63 65.13 64.94 63.68 63.29 62.35 57.78 56.51 57.78 58.99 60.24 65.40 65.74 60.50 56.33 56.51 57.76 59.91 59.73 57.56 60.73
63.28 62.20 61.74 60.75 60.06 60.98 62.17 61.66 61.13 61.31 61.62 63.06 63.67 61.27 57.68 54.21 55.70 57.00 57.61 57.95 58.52 60.15 60.21 60.78 60.94 60.58 59.67 59.67 60.03 60.58 61.14 59.75 60.82 61.87 63.29 61.95 59.73 58.69 62.25 61.73 60.03 62.62 62.46
62.16 61.98 61.85 61.08 60.37 61.29 61.05 61.22 61.05 61.00 60.60 61.17 61.24 57.08 55.91 55.65 52.91 49.98 50.05 53.88 50.58 50.11 56.55 58.18 57.88 56.63 55.89 55.49 50.17 51.60 59.51 60.60 58.12 58.28 60.03 60.40 60.78 60.42 61.32 61.68 61.84 62.05 59.97
60.52 61.02 61.21 61.62 61.38 61.12 60.89 61.30 60.68 60.28 59.81 59.49 60.94 57.62 54.26 55.75 55.45 54.33 52.06 47.61 46.58 45.35 44.48 45.09 50.33 53.92 47.23 45.60 45.45 44.55 46.00 48.54 51.62 58.79 58.95 58.97 59.47 58.75 58.70 58.70 58.70 58.54 58.24
MSLP
1012.39 1012.81 1013.24 1013.52 1013.95 1014.38 1014.86 1015.17 1015.57 1015.73 1016.23 1016.57 1016.82 1017.18 1017.12 1016.73 1016.78 1016.80 1016.75 1016.95 1017.27 1017.45 1017.65 1017.67 1017.57 1017.32 1017.63 1017.95 1017.91 1017.79 1017.77 1017.47 1017.36 1017.59 1017.84 1017.59 1017.09 1016.82 1016.78 1016.53 1016.36 1016.31 1016.60
1012.53 1012.72 1012.91 1013.19 1013.52 1013.85 1014.47 1015.03 1015.19 1015.74 1015.93 1016.07 1016.24 1016.37 1016.68 1016.58 1016.61 1016.63 1016.59 1016.78 1016.96 1017.12 1017.17 1017.26 1017.66 1017.57 1017.71 1017.98 1017.81 1017.83 1017.98 1017.85 1017.68 1017.99 1018.36 1018.21 1017.60 1017.14 1016.88 1016.76 1016.85 1016.66 1016.66
1011.75 1012.20 1012.50 1012.68 1012.98 1013.48 1013.94 1014.50 1014.72 1015.11 1015.64 1015.84 1016.23 1016.50 1016.62 1016.63 1016.78 1016.70 1016.62 1016.46 1016.73 1016.96 1017.02 1017.10 1017.44 1017.50 1017.63 1017.79 1017.72 1017.77 1017.95 1017.92 1017.78 1017.73 1018.46 1018.77 1018.36 1018.01 1017.41 1017.15 1016.96 1017.01 1017.17
1011.46 1011.75 1012.11 1012.29 1012.43 1012.67 1013.17 1013.93 1014.61 1014.82 1015.32 1015.66 1016.04 1016.30 1016.52 1016.94 1016.86 1016.68 1016.56 1016.53 1016.65 1016.87 1016.85 1016.97 1017.13 1017.17 1017.45 1017.50 1017.71 1017.73 1017.82 1017.88 1018.02 1018.04 1017.99 1018.12 1017.97 1018.00 1018.18 1017.60 1017.12 1017.09 1017.28
1010.63 1011.23 1011.46 1011.76 1011.95 1012.35 1012.67 1013.19 1014.09 1014.65 1014.90 1015.15 1015.48 1015.86 1016.31 1016.63 1016.67 1016.62 1016.72 1016.69 1016.57 1016.58 1016.67 1016.91 1016.96 1017.30 1017.38 1017.54 1017.56 1017.76 1017.63 1017.77 1017.94 1018.08 1018.07 1017.92 1017.83 1017.86 1018.18 1018.20 1017.75 1017.66 1017.55
1010.01 1010.70 1011.20 1011.75 1012.02 1012.35 1012.68 1013.04 1013.81 1014.40 1014.53 1014.89 1015.12 1015.46 1015.91 1016.31 1016.62 1016.79 1016.79 1016.76 1016.68 1016.58 1016.53 1016.76 1017.08 1017.22 1017.38 1017.46 1017.35 1017.45 1017.50 1017.67 1017.76 1017.95 1018.08 1017.96 1017.90 1018.03 1018.08 1018.18 1018.12 1018.10 1017.72
1009.51 1010.35 1011.03 1011.72 1011.94 1012.21 1012.23 1012.77 1013.29 1013.73 1014.14 1014.54 1014.84 1015.10 1015.45 1015.70 1016.19 1016.47 1016.56 1016.70 1016.76 1016.62 1016.41 1016.59 1016.96 1017.17 1017.08 1017.16 1017.16 1017.27 1017.49 1017.75 1017.99 1017.88 1017.87 1017.84 1017.73 1017.70 1017.74 1018.11 1018.23 1018.23 1018.03
1009.12 1010.00 1010.73 1011.29 1011.62 1011.84 1012.07 1012.42 1013.04 1013.68 1013.94 1014.10 1014.47 1014.75 1015.00 1015.37 1015.62 1015.99 1016.38 1016.36 1016.51 1016.38 1016.39 1016.39 1016.56 1016.75 1016.91 1017.07 1017.00 1017.31 1017.37 1017.57 1017.83 1017.80 1017.69 1017.64 1017.57 1017.62 1017.69 1017.77 1017.97 1018.32 1018.32
1008.79 1009.45 1010.27 1010.67 1010.82 1011.04 1011.51 1011.94 1012.52 1013.13 1013.39 1013.71 1014.02 1014.39 1014.71 1015.06 1015.37 1015.62 1015.87 1016.01 1016.03 1016.27 1016.56 1016.32 1016.46 1016.34 1016.45 1016.50 1016.99 1017.21 1017.36 1017.42 1017.45 1017.49 1017.55 1017.56 1017.43 1017.44 1017.31 1017.28 1017.37 1017.63 1018.37
1008.58 1009.17 1009.76 1010.09 1010.03 1010.13 1010.85 1011.71 1012.15 1012.48 1012.92 1013.27 1013.53 1013.75 1014.07 1014.31 1014.59 1014.97 1015.36 1015.57 1015.78 1015.90 1015.95 1016.14 1016.26 1016.23 1016.40 1016.53 1016.80 1016.88 1017.02 1017.25 1017.24 1017.30 1017.47 1017.40 1017.20 1017.06 1017.09 1016.96 1017.12 1017.27 1017.67
1007.96 1008.58 1009.13 1009.38 1009.68 1010.49 1011.15 1011.49 1011.96 1012.36 1012.54 1012.54 1012.86 1013.16 1013.52 1013.82 1014.12 1014.43 1014.48 1014.79 1015.01 1015.29 1015.59 1015.62 1015.88 1016.09 1016.16 1016.22 1016.55 1016.69 1016.80 1017.01 1017.04 1017.09 1017.31 1017.21 1017.06 1016.88 1016.82 1016.86 1016.94 1017.26 1017.35
1007.79 1008.49 1009.17 1009.63 1009.94 1010.44 1010.98 1011.25 1011.74 1012.02 1011.90 1012.21 1012.45 1012.67 1012.79 1013.25 1013.50 1013.76 1014.22 1014.36 1014.47 1014.71 1014.90 1015.08 1015.46 1015.79 1016.04 1016.15 1016.29 1016.47 1016.44 1016.64 1016.81 1016.75 1016.92 1016.75 1016.77 1016.85 1016.76 1016.78 1016.75 1016.88 1016.96
1007.91 1008.58 1009.29 1009.83 1010.20 1010.35 1010.79 1011.08 1011.23 1011.41 1011.47 1012.02 1012.36 1012.40 1012.61 1012.76 1012.98 1013.19 1013.56 1014.03 1014.32 1014.28 1014.47 1014.82 1015.04 1015.37 1015.68 1016.13 1016.10 1016.12 1016.19 1016.12 1016.26 1016.26 1016.39 1016.32 1016.45 1016.64 1016.69 1016.67 1016.72 1016.72 1016.78
1007.87 1008.49 1009.34 1009.62 1010.02 1010.04 1010.30 1010.71 1011.07 1011.39 1011.60 1011.90 1012.12 1012.29 1012.66 1012.52 1012.57 1012.82 1013.01 1013.43 1013.76 1014.05 1014.14 1014.21 1014.59 1014.84 1015.08 1015.33 1015.55 1015.71 1015.78 1015.87 1015.94 1015.89 1015.98 1015.96 1016.11 1016.27 1016.31 1016.47 1016.55 1016.71 1016.89
1007.97 1008.48 1009.10 1009.55 1009.87 1010.06 1010.21 1010.50 1010.90 1011.21 1011.45 1011.76 1011.91 1012.25 1012.39 1012.61 1012.51 1012.54 1012.65 1012.54 1012.94 1013.45 1013.68 1013.94 1014.21 1014.52 1014.75 1014.82 1014.99 1015.09 1015.28 1015.39 1015.53 1015.54 1015.54 1015.57 1015.58 1015.65 1015.71 1015.99 1016.16 1016.40 1016.73
1007.88 1008.36 1008.73 1009.21 1009.86 1010.07 1010.21 1010.45 1010.71 1010.98 1011.24 1011.39 1011.34 1011.86 1012.20 1012.23 1012.39 1012.45 1012.79 1012.54 1012.42 1012.80 1013.22 1013.43 1013.57 1013.80 1013.99 1014.04 1014.20 1014.44 1014.65 1014.78 1015.12 1015.31 1015.18 1015.20 1015.24 1015.42 1015.39 1015.46 1015.62 1015.74 1016.19
1007.53 1008.15 1008.74 1009.21 1009.69 1010.13 1010.28 1010.45 1010.62 1010.88 1011.10 1011.23 1011.42 1011.56 1011.76 1011.97 1012.10 1012.29 1012.29 1012.32 1012.56 1012.59 1012.84 1012.96 1013.17 1013.19 1013.26 1013.39 1013.54 1013.74 1014.15 1014.25 1014.37 1014.55 1014.72 1014.86 1014.96 1015.20 1015.41 1015.60 1015.63 1015.84 1016.00
1007.06 1008.03 1008.77 1009.30 1009.65 1009.99 1010.34 1010.53 1010.76 1010.93 1011.19 1011.24 1011.26 1011.18 1011.45 1011.58 1011.78 1011.85 1011.80 1012.16 1012.31 1012.26 1012.50 1012.65 1012.76 1012.89 1012.65 1012.73 1012.87 1013.01 1013.41 1013.74 1013.78 1013.87 1014.04 1014.25 1014.43 1014.84 1015.22 1015.52 1015.74 1015.88 1016.01
1006.50 1007.48 1008.25 1008.94 1009.52 1009.82 1010.21 1010.52 1010.77 1010.93 1011.21 1011.27 1011.06 1011.11 1011.36 1011.44 1011.53 1011.58 1011.50 1011.53 1011.82 1011.87 1011.99 1012.00 1012.08 1012.27 1012.11 1012.05 1012.26 1012.47 1012.97 1013.14 1013.10 1013.04 1013.12 1013.33 1013.61 1013.86 1014.57 1015.07 1015.60 1015.95 1015.96
1006.09 1007.25 1008.00 1008.57 1009.16 1009.75 1010.17 1010.66 1010.97 1011.03 1011.17 1011.16 1011.14 1011.01 1011.00 1011.17 1011.23 1011.12 1010.92 1010.95 1010.91 1010.94 1011.26 1011.56 1011.65 1011.84 1011.98 1011.91 1012.02 1012.28 1012.62 1012.68 1012.60 1012.46 1012.46 1012.52 1012.66 1013.00 1013.66 1014.20 1014.80 1015.36 1015.49
1006.37 1007.41 1008.29 1008.91 1009.06 1009.43 1010.11 1010.82 1011.05 1011.12 1011.05 1011.07 1011.19 1011.38 1011.42 1011.36 1011.14 1011.17 1011.09 1011.02 1011.08 1010.98 1011.04 1011.22 1011.43 1011.81 1011.97 1011.84 1011.83 1012.03 1012.24 1011.93 1011.93 1011.93 1011.75 1011.60 1011.68 1012.22 1012.71 1013.08 1013.66 1013.87 1014.39
1007.06 1007.72 1008.30 1008.96 1009.42 1009.65 1010.13 1010.81 1011.19 1011.14 1011.04 1011.25 1011.51 1011.69 1011.57 1011.49 1011.50 1011.40 1011.36 1011.50 1011.57 1011.32 1010.93 1010.72 1010.47 1010.73 1011.52 1011.74 1011.87 1011.92 1012.07 1011.93 1011.56 1011.01 1010.90 1010.99 1011.15 1011.51 1011.92 1012.60 1012.89 1013.57 1014.08
1006.88 1007.59 1008.26 1008.94 1009.52 1009.78 1010.06 1010.69 1010.92 1011.02 1011.26 1011.61 1011.88 1012.10 1012.24 1012.30 1012.12 1011.94 1011.91 1012.01 1012.03 1011.78 1011.64 1011.59 1011.67 1011.86 1012.17 1011.82 1011.92 1011.97 1011.80 1011.63 1011.67 1011.23 1010.74 1010.42 1010.66 1011.11 1011.58 1011.81 1012.20 1012.49 1013.44
1006.84 1007.45 1008.35 1009.26 1009.79 1009.92 1010.21 1010.39 1010.71 1010.82 1011.09 1011.43 1011.94 1012.31 1012.66 1012.91 1012.87 1012.75 1012.67 1012.76 1012.75 1012.68 1012.43 1012.45 1012.65 1012.69 1012.65 1012.43 1012.26 1012.09 1011.64 1011.42 1011.23 1010.93 1010.72 1010.70 1010.70 1011.06 1011.12 1011.41 1011.29 1011.44 1012.10
1006.57 1007.19 1008.01 1008.77 1009.36 1009.79 1010.18 1010.44 1010.79 1010.94 1011.17 1011.42 1011.88 1012.36 1012.80 1013.06 1013.24 1013.39 1013.42 1013.37 1013.40 1013.31 1013.10 1013.24 1013.18 1013.13 1013.06 1012.85 1012.65 1012.34 1011.80 1011.45 1011.26 1011.12 1010.95 1010.94 1011.06 1011.14 1011.37 1011.51 1011.78 1012.46 1012.39
1006.80 1007.28 1007.81 1008.30 1009.12 1009.65 1009.94 1010.21 1010.55 1010.96 1011.30 1011.64 1011.93 1012.43 1013.00 1013.36 1013.57 1013.69 1013.78 1013.68 1013.44 1013.29 1013.41 1013.32 1013.25 1013.20 1013.21 1012.88 1012.51 1012.17 1011.81 1011.55 1011.35 1011.19 1011.23 1011.21 1011.25 1011.38 1011.54 1011.76 1012.29 1012.12 1013.44
Wind_Speed
11 9 12 12 11 9 9 8 7 7 6 2 2 1 4 1 1 3 6 5 5 5 4 2 1 2 2 2 3 2 3 3 2 2 2 2 4 5 3 3 3 3 4
7 10 11 13 13 13 10 8 8 6 5 4 3 3 3 1 2 1 4 5 6 5 4 1 1 2 1 2 1 3 2 2 1 2 2 4 5 3 4 3 2 3 3
13 10 9 13 14 13 13 10 9 8 6 6 3 2 2 2 2 1 2 2 5 5 6 4 4 3 2 1 1 1 1 2 2 4 4 0 2 2 3 3 3 1 1
8 8 9 9 14 15 12 11 8 8 7 7 4 4 4 3 3 2 1 2 4 5 6 5 5 3 2 2 1 1 2 2 2 2 1 1 2 2 3 3 3 3 1
14 13 12 13 12 12 12 10 9 10 9 9 7 5 4 3 2 2 3 4 4 4 4 4 4 3 1 3 3 1 1 1 1 1 2 1 1 2 2 1 3 2 1
12 10 7 6 7 9 8 9 9 8 8 8 8 8 8 6 3 3 4 4 3 2 4 4 3 2 3 4 3 1 1 1 1 1 1 0 1 0 1 0 1 1 3
13 9 10 9 8 9 11 10 10 10 9 8 8 8 8 7 7 6 4 3 2 3 5 3 4 4 5 4 3 2 2 3 2 3 1 2 2 1 2 2 1 0 2
11 10 11 9 11 10 10 9 11 10 8 9 8 7 7 5 5 5 4 4 3 4 3 5 5 5 5 4 3 2 3 3 3 4 3 2 2 1 2 3 3 1 1
11 12 12 13 13 14 14 11 8 7 9 10 8 7 7 7 6 7 5 4 4 3 5 5 6 6 6 6 4 3 4 3 3 4 4 3 2 2 3 3 3 4 3
9 9 11 13 14 11 10 8 9 9 7 7 8 9 10 9 8 7 7 7 6 5 6 6 6 6 6 4 4 3 4 4 3 2 4 2 2 2 1 3 3 2 3
12 11 10 12 10 6 5 8 7 7 8 9 8 8 8 8 7 7 8 7 6 7 7 6 6 6 6 6 5 6 6 5 5 3 5 6 4 3 2 1 2 2 2
7 7 9 8 6 7 7 8 8 8 8 8 8 7 7 7 8 8 7 6 7 6 8 6 6 5 6 6 6 6 6 7 6 6 6 6 3 4 2 2 3 3 3
5 7 7 8 7 7 6 7 7 7 6 5 6 6 6 6 7 8 8 6 6 7 6 6 7 7 7 7 6 6 6 7 6 6 6 7 4 4 3 3 3 2 2
7 6 5 6 6 6 6 6 7 6 6 7 7 5 4 5 5 5 6 7 7 7 6 6 7 7 7 7 7 6 6 6 6 6 6 6 6 7 6 5 6 4 3
7 8 8 7 6 6 6 5 5 5 5 5 4 5 5 5 4 3 6 7 7 9 9 9 8 7 7 7 8 7 7 6 6 6 6 6 7 10 8 5 6 5 4
9 8 6 5 6 5 6 5 5 5 5 4 5 5 6 4 5 4 6 5 7 9 7 8 9 9 8 11 13 9 8 7 7 7 6 6 6 8 10 10 7 7 6
12 10 9 7 6 6 6 6 5 4 5 6 7 5 4 5 5 5 5 4 5 3 7 9 10 11 11 12 14 15 8 7 8 8 6 5 5 6 5 3 5 3 4
11 9 8 6 5 4 4 3 4 5 5 5 6 4 3 5 5 5 6 6 5 6 5 6 7 8 9 12 15 15 9 7 7 8 9 8 8 8 7 6 5 4 3
10 11 9 7 6 6 5 5 3 3 3 6 7 5 6 7 7 8 7 5 5 5 6 5 7 10 12 13 16 11 6 9 10 9 9 10 10 12 14 9 7 5 3
12 12 11 7 8 7 6 6 4 4 5 5 5 1 2 1 1 1 3 4 5 4 4 4 4 6 8 6 10 8 6 9 9 8 9 14 12 16 18 12 11 9 7
13 10 9 9 8 7 7 6 4 3 2 3 4 3 2 2 3 2 3 4 3 2 3 4 3 3 1 3 6 8 6 8 7 7 8 8 15 17 20 14 12 11 9
13 12 9 7 6 7 7 7 6 2 2 4 3 2 2 3 3 3 3 3 4 4 2 1 2 2 3 3 6 6 10 10 8 8 7 7 11 15 20 14 11 11 9
14 11 10 8 5 6 7 7 5 5 5 6 4 3 3 4 4 4 4 2 3 2 2 1 0 2 4 3 5 6 7 9 6 6 6 8 13 15 15 18 17 17 10
12 9 11 9 7 6 6 6 6 5 5 5 6 5 3 3 3 2 3 2 2 2 1 1 2 2 3 3 3 4 4 5 5 6 5 6 7 7 7 10 11 11 11
11 11 12 10 9 7 7 7 6 5 4 3 5 5 3 3 3 3 3 2 3 1 2 2 2 2 3 3 5 6 4 3 3 2 1 1 1 3 3 2 4 1 7
8 9 8 9 8 8 7 7 6 6 6 4 4 5 4 3 3 2 2 6 4 4 5 5 3 1 1 6 5 5 2 3 6 1 2 2 3 4 6 6 5 7 8
Wind_Direction
202 192 187 191 187 192 180 198 203 201 155 149 167 183 252 235 226 203 215 204 204 204 209 210 313 37 34 341 305 16 334 351 30 59 15 313 327 13 359 261 223 159 142
173 189 186 190 194 194 194 189 200 197 197 170 181 149 177 201 250 209 222 200 213 232 231 208 166 166 96 320 32 39 344 309 9 91 99 3 333 353 10 359 287 121 126
192 184 191 191 195 196 193 196 201 190 194 192 112 80 62 40 359 310 184 210 213 218 218 218 207 179 135 302 53 351 15 350 1 41 124 349 247 345 323 315 320 335 6
191 199 196 183 185 201 191 184 193 199 192 175 165 160 160 176 230 233 208 276 230 224 216 217 218 200 169 277 293 191 212 133 41 15 263 251 161 152 337 328 315 358 352
189 196 194 194 188 185 189 184 176 198 205 178 186 175 162 174 198 246 216 245 285 258 245 234 234 239 200 256 263 226 194 120 125 137 317 338 37 88 120 295 330 1 69
198 197 179 166 165 180 174 174 173 191 185 186 182 188 186 189 195 224 243 245 244 245 240 253 248 258 252 248 250 235 208 176 4 150 229 227 111 298 112 95 300 337 332
196 175 166 167 168 174 177 176 181 200 193 184 195 187 192 182 192 219 229 242 239 227 228 208 221 223 235 231 223 212 224 180 197 237 223 214 230 191 141 141 225 152 308
183 177 172 173 185 184 185 178 182 199 196 188 201 204 192 189 186 197 214 225 220 234 232 217 212 230 253 228 223 240 223 226 227 224 245 245 249 208 187 191 149 35 328
181 175 170 178 186 191 198 186 172 194 189 204 197 202 197 194 197 213 202 230 226 225 244 235 218 217 232 241 199 226 253 221 234 223 239 229 244 207 245 203 181 151 198
189 179 182 190 207 191 192 176 186 194 186 194 204 204 205 199 195 191 210 210 216 211 219 222 227 220 216 221 227 250 252 250 249 232 271 256 250 224 216 197 204 147 148
196 185 185 199 202 172 164 169 176 181 199 201 192 200 195 200 190 203 208 203 200 204 217 220 218 217 219 218 212 229 248 241 248 230 242 256 275 276 260 229 160 194 165
191 151 169 183 177 178 167 178 179 182 190 176 174 184 187 192 200 202 213 209 207 204 215 203 210 214 219 230 218 230 221 219 240 238 231 252 243 268 257 227 218 195 187
147 132 148 177 189 192 172 173 177 185 178 181 196 182 189 190 206 207 206 200 217 215 205 198 206 208 218 222 231 220 226 224 234 236 223 240 232 242 231 210 208 207 180
166 158 157 198 194 202 197 186 198 192 179 203 197 190 236 211 213 223 196 188 200 211 209 205 218 213 213 217 224 222 225 221 235 240 233 229 217 222 222 219 213 206 197
171 185 174 180 196 217 228 214 193 179 176 188 172 207 187 235 237 246 230 194 186 214 215 212 216 224 217 221 215 212 221 223 234 239 240 241 228 224 212 195 215 191 192
179 174 152 167 172 194 214 224 209 182 174 206 233 195 209 207 222 230 262 251 198 209 204 219 223 223 229 225 217 208 211 214 221 236 242 242 240 237 232 225 212 182 178
168 158 169 181 176 187 191 205 201 172 198 218 243 240 197 214 228 232 232 224 249 223 232 224 223 227 228 222 219 216 223 215 219 224 227 225 219 208 205 201 147 108 222
160 151 163 154 192 169 183 169 173 194 215 240 248 259 228 240 231 228 232 220 204 212 214 222 219 236 238 223 226 224 221 223 222 218 220 213 206 200 184 173 157 153 137
157 156 162 156 160 166 165 148 158 205 216 250 259 237 203 215 229 239 228 215 211 210 214 214 227 235 242 221 228 219 226 233 233 229 220 211 209 190 183 170 166 172 192
148 151 153 151 150 172 154 144 142 178 230 235 233 313 63 89 179 275 263 208 206 231 216 232 229 250 254 249 253 224 229 238 237 229 230 217 211 185 180 178 172 177 195
143 134 141 160 167 148 140 136 129 161 259 106 106 77 51 64 21 353 13 14 1 312 218 223 178 192 360 324 268 242 229 229 233 235 237 230 207 192 190 196 183 194 158
138 151 146 151 156 144 135 142 144 149 137 126 112 102 54 25 5 27 10 20 356 333 311 244 167 35 336 20 359 310 243 271 242 228 230 231 208 198 194 192 192 159 148
158 155 152 141 148 146 141 141 177 158 155 150 151 131 74 39 20 24 2 8 8 336 359 329 253 217 255 303 318 302 287 268 258 271 273 214 206 203 194 198 183 164 169
158 146 140 149 164 167 161 165 172 182 154 156 158 141 123 78 42 51 27 27 27 55 56 273 241 271 288 295 294 291 292 278 270 266 274 236 204 204 230 201 191 184 185
155 154 160 165 162 156 170 171 177 170 168 166 142 115 116 109 77 43 13 26 85 308 26 13 328 312 301 308 295 271 272 272 262 122 93 125 138 125 106 95 123 127 116
158 159 165 149 154 169 181 183 180 170 161 170 160 150 148 144 136 129 84 52 57 51 72 61 60 143 331 349 10 15 26 151 169 67 102 98 108 106 109 107 83 100 104